NW Arkansas Airport, AR

11:39 PM CDT on March 22, 2017 (GMT -0500)
Northwest Arkansas Regional

Weather History for KXNA - October, 2012

Change the Weather History Date:

Thursday, October 25, 2012

  Actual Average (KVBT) Record (KVBT)
Temperature  
Mean Temperature 58 °F -  
Max Temperature 71 °F 67 °F 86 °F (1950)
Min Temperature 44 °F 41 °F 25 °F (1981)
Degree Days  
Heating Degree Days 8    
Growing Degree Days 8 (Base 50)    
Moisture  
Dew Point 53 °F    
Average Humidity 86    
Maximum Humidity 100    
Minimum Humidity 73    
Precipitation  
Precipitation 0.17 in - - ()
Sea Level Pressure  
Sea Level Pressure 29.94 in    
Wind  
Wind Speed 15 mph (West)    
Max Wind Speed 22 mph    
Max Gust Speed 31 mph    
Visibility 9 miles    
Events      
Averages and records for this station are not official NWS values.
T = Trace of Precipitation, MM = Missing Value Source: NWS Daily Summary

Daily Weather History Graph

Daily Weather History Graph

Search for Another Location

Airport or City:

Trip Planner

Search our weather history database for the weather conditions in past years. The results will help you decide how hot, cold, wet, or windy it might be!

Date:

Astronomy

Oct. 25, 2012 Rise Set
Actual Time 7:33 AM CDT 6:28 PM CDT
Civil Twilight 7:07 AM CDT 6:54 PM CDT
Nautical Twilight 6:37 AM CDT 7:24 PM CDT
Astronomical Twilight 6:07 AM CDT 7:54 PM CDT
Moon 4:09 PM CDT (10/25) 3:37 AM CDT (10/25)
Length of Visible Light 11h 46m
Length of Day
10h 54m
Waxing Gibbous, 84% of the Moon is Illuminated
Oct 25
Waxing Gibbous
Oct 29
Full
Nov 6
Last Quarter
Nov 13
New
Nov 20
First Quarter

Hourly Weather History & Observations

Time (CDT) Temp. Windchill Dew Point Humidity Pressure Visibility Wind Dir Wind Speed Gust Speed Precip Events Conditions
12:53 AM 69.1 °F - 62.1 °F 78% 29.77 in 10.0 mi South 15.0 mph 25.3 mph N/A   Clear
1:53 AM 68.0 °F - 62.1 °F 81% 29.78 in 10.0 mi South 11.5 mph - N/A   Clear
2:53 AM 68.0 °F - 62.1 °F 81% 29.79 in 10.0 mi South 13.8 mph - N/A   Clear
3:36 AM 66.2 °F - 62.6 °F 88% 29.84 in 10.0 mi South 10.4 mph - N/A   Mostly Cloudy
3:53 AM 66.9 °F - 63.0 °F 87% 29.79 in 10.0 mi South 11.5 mph - N/A   Mostly Cloudy
4:05 AM 66.2 °F - 62.6 °F 88% 29.83 in 10.0 mi South 12.7 mph - N/A   Partly Cloudy
4:53 AM 66.0 °F - 63.0 °F 90% 29.79 in 10.0 mi South 13.8 mph - N/A   Clear
5:53 AM 66.9 °F - 63.0 °F 87% 29.80 in 10.0 mi South 12.7 mph - N/A   Clear
6:53 AM 68.0 °F - 64.0 °F 87% 29.79 in 10.0 mi South 17.3 mph 24.2 mph N/A   Mostly Cloudy
7:53 AM 68.0 °F - 64.0 °F 87% 29.80 in 10.0 mi South 21.9 mph 28.8 mph N/A   Partly Cloudy
8:53 AM 69.1 °F - 64.0 °F 84% 29.82 in 10.0 mi South 16.1 mph 26.5 mph N/A   Clear
9:53 AM 71.1 °F - 63.0 °F 75% 29.83 in - SSW 20.7 mph 31.1 mph 0.14 in   Overcast
10:05 AM - - - N/A% 29.87 in - SSW 18.4 mph 26.5 mph N/A   Overcast
10:35 AM 71.6 °F - 62.6 °F 73% 29.87 in 10.0 mi SSW 19.6 mph 25.3 mph N/A   Overcast
10:53 AM 70.0 °F - 64.0 °F 81% 29.85 in 10.0 mi North - - N/A   Overcast
11:11 AM 71.6 °F - 64.4 °F 78% 29.88 in 2.5 mi SSW 13.8 mph 20.7 mph N/A   Haze
11:20 AM 69.8 °F - 64.4 °F 83% 29.88 in 10.0 mi SSW 12.7 mph 20.7 mph N/A   Overcast
11:36 AM 69.8 °F - 64.4 °F 83% 29.88 in 10.0 mi SSW 17.3 mph 25.3 mph N/A   Overcast
11:53 AM 70.0 °F - 64.0 °F 81% 29.85 in 10.0 mi SSW 13.8 mph - N/A   Overcast
12:46 PM 68.0 °F - 66.2 °F 94% 29.88 in 6.0 mi SW 9.2 mph - N/A   Overcast
1:06 PM 53.6 °F - 53.6 °F 100% 29.92 in 5.0 mi WNW 18.4 mph 29.9 mph 0.01 in   Overcast
1:53 PM 50.0 °F - 48.9 °F 96% 29.93 in 10.0 mi NW 18.4 mph 24.2 mph 0.03 in   Overcast
2:30 PM 48.2 °F - 46.4 °F 93% 29.97 in 2.5 mi NNW 15.0 mph 21.9 mph 0.02 in   Overcast
2:37 PM 48.2 °F - 46.4 °F 93% 29.98 in 8.0 mi NNW 16.1 mph 27.6 mph 0.02 in   Overcast
3:45 PM 46.4 °F 39.5 °F 44.6 °F 93% 30.02 in 10.0 mi NNW 17.3 mph 27.6 mph N/A   Overcast
3:53 PM 46.0 °F 39.3 °F 43.0 °F 89% 30.01 in 10.0 mi NNW 16.1 mph 23.0 mph N/A   Overcast
4:04 PM 46.4 °F 40.4 °F 44.6 °F 93% 30.03 in 10.0 mi North 13.8 mph - N/A   Overcast
4:53 PM 46.0 °F 39.0 °F 43.0 °F 89% 30.04 in 10.0 mi NNW 17.3 mph 25.3 mph N/A   Overcast
5:53 PM 45.0 °F 38.5 °F 42.1 °F 90% 30.06 in 10.0 mi NNW 13.8 mph - N/A   Overcast
6:33 PM 44.6 °F 38.8 °F 42.8 °F 93% 30.08 in 10.0 mi North 11.5 mph - N/A   Overcast
6:53 PM 45.0 °F 38.5 °F 42.1 °F 90% 30.08 in 10.0 mi North 13.8 mph - N/A   Overcast
7:21 PM 44.6 °F 38.1 °F 41.0 °F 87% 30.11 in 10.0 mi North 13.8 mph 19.6 mph N/A   Overcast
7:39 PM 44.6 °F 37.4 °F 39.2 °F 81% 30.12 in 10.0 mi North 16.1 mph - N/A   Overcast
7:53 PM 44.1 °F 36.8 °F 39.0 °F 82% 30.11 in 10.0 mi North 16.1 mph - N/A   Overcast
8:53 PM 44.1 °F 36.8 °F 37.9 °F 79% 30.14 in 10.0 mi North 16.1 mph 24.2 mph N/A   Overcast
9:53 PM 44.1 °F 36.2 °F 37.9 °F 79% 30.16 in 10.0 mi North 18.4 mph 24.2 mph N/A   Overcast
10:53 PM 44.1 °F 37.7 °F 37.9 °F 79% 30.17 in 10.0 mi NNE 12.7 mph 27.6 mph N/A   Overcast
11:53 PM 44.1 °F 37.1 °F 37.0 °F 76% 30.17 in 10.0 mi NNE 15.0 mph - N/A   Overcast